Bhopal, India

10:35 PM IST on October 23, 2017 (GMT +0530)
Bhopal

Weather History for VABP - August, 2017

Change the Weather History Date:

Sunday, August 13, 2017

  Actual Average Record
Temperature  
Mean Temperature 80 °F -  
Max Temperature 86 °F - - ()
Min Temperature 73 °F - - ()
Cooling Degree Days 14    
Growing Degree Days 30 (Base 50)    
Moisture  
Dew Point 73 °F    
Average Humidity 78    
Maximum Humidity 94    
Minimum Humidity 55    
Precipitation  
Precipitation 0.00 in - - ()
Sea Level Pressure  
Sea Level Pressure 29.76 in    
Wind  
Wind Speed 9 mph ()    
Max Wind Speed 15 mph    
Max Gust Speed -    
Visibility 2.8 miles    
Events Rain    
T = Trace of Precipitation, MM = Missing Value Source: Averaged Metar Reports

Daily Weather History Graph

Daily Weather History Graph

Search for Another Location

Airport or City:

Trip Planner

Search our weather history database for the weather conditions in past years. The results will help you decide how hot, cold, wet, or windy it might be!

Date:

Astronomy

Aug. 13, 2017 Rise Set
Actual Time 5:55 AM IST 6:54 PM IST
Civil Twilight 5:32 AM IST 7:18 PM IST
Nautical Twilight 5:04 AM IST 7:46 PM IST
Astronomical Twilight 4:35 AM IST 8:14 PM IST
Moon 10:50 PM IST (8/13) 10:49 AM IST (8/13)
Length of Visible Light 13h 46m
Length of Day
12h 58m
Waning Gibbous, 70% of the Moon is Illuminated
Aug 13
Waning Gibbous
Aug 15
Last Quarter
Aug 22
New
Aug 29
First Quarter
Sep 6
Full

Hourly Weather History & Observations

Time (IST) Temp. Heat Index Dew Point Humidity Pressure Visibility Wind Dir Wind Speed Gust Speed Precip Events Conditions
2:30 AM 77 °F - 72 °F 79% 29.64 in 2 mi SW 11.5 mph - -   Haze
5:30 AM 75 °F - 73 °F 90% 29.66 in 2 mi SW 5.8 mph - - Rain Light Rain
5:30 AM 75.2 °F - 73.4 °F 94% 29.74 in 2.5 mi SW 5.8 mph - N/A   Haze
6:30 AM 75.2 °F - 73.4 °F 94% 29.77 in 2.5 mi West 11.5 mph - N/A   Haze
7:30 AM 73.4 °F - 71.6 °F 94% 29.77 in 1.9 mi West 11.5 mph - N/A   Haze
8:00 AM 75.2 °F - 71.6 °F 89% 29.80 in 1.9 mi West 6.9 mph - N/A   Haze
8:30 AM 77 °F - 72 °F 81% 29.71 in 2 mi WSW 12.7 mph - -   Haze
8:30 AM 77.0 °F - 71.6 °F 83% 29.80 in 3.1 mi WSW 12.7 mph - N/A   Haze
9:30 AM 78.8 °F - 71.6 °F 78% 29.80 in 3.1 mi West 15.0 mph - N/A   Haze
10:30 AM 78.8 °F - 71.6 °F 78% 29.83 in 3.7 mi West 13.8 mph - N/A   Mostly Cloudy
11:30 AM 81 °F - 72 °F 68% 29.73 in 2 mi WSW 9.2 mph - -   Haze
11:30 AM 80.6 °F 84.6 °F 71.6 °F 74% 29.83 in 3.1 mi WSW 9.2 mph - N/A   Haze
12:30 PM 80.6 °F 85.4 °F 73.4 °F 79% 29.80 in 3.1 mi WSW 8.1 mph - N/A   Haze
1:00 PM 80.6 °F 85.4 °F 73.4 °F 79% 29.80 in 3.1 mi West 11.5 mph - N/A   Haze
1:30 PM 84.2 °F 90.9 °F 73.4 °F 70% 29.77 in 3.1 mi WSW 11.5 mph - N/A   Haze
2:00 PM 84.2 °F 89.6 °F 71.6 °F 66% 29.77 in 3.1 mi WSW 11.5 mph - N/A   Haze
2:30 PM 86 °F - 72 °F 55% 29.66 in 2 mi WSW 11.5 mph - -   Haze
2:30 PM 86.0 °F 91.8 °F 71.6 °F 62% 29.77 in 3.1 mi WSW 11.5 mph - N/A   Haze
3:30 PM 84.2 °F 90.9 °F 73.4 °F 70% 29.74 in 3.1 mi SSW 11.5 mph - N/A   Haze
5:30 PM 82 °F - 72 °F 65% 29.65 in 2 mi WSW 9.2 mph - -   Partly Cloudy
5:30 PM 82.4 °F 87.2 °F 71.6 °F 70% 29.74 in 3.7 mi WSW 9.2 mph - N/A   Mostly Cloudy
6:30 PM 80.6 °F 84.6 °F 71.6 °F 74% 29.77 in 3.7 mi SSW 11.5 mph - N/A   Mostly Cloudy
7:30 PM 80.6 °F 86.2 °F 75.2 °F 84% 29.80 in 3.7 mi South 9.2 mph - N/A   Mostly Cloudy
8:30 PM 80 °F - 74 °F 79% 29.72 in 2 mi SSW 9.2 mph - -   Partly Cloudy
9:30 PM 78.8 °F - 73.4 °F 83% 29.83 in 3.7 mi SW 12.7 mph - N/A   Mostly Cloudy
11:30 PM 76 °F - 73 °F 86% 29.75 in 2 mi SW 6.9 mph - -   Partly Cloudy
11:30 PM 77.0 °F - 73.4 °F 89% 29.83 in 3.7 mi SW 6.9 mph - N/A   Mostly Cloudy